MST,Max TemperatureF,Mean TemperatureF,Min TemperatureF,Max Dew PointF,MeanDew PointF,Min DewpointF,Max Humidity, Mean Humidity, Min Humidity, Max Sea Level PressureIn, Mean Sea Level PressureIn, Min Sea Level PressureIn, Max VisibilityMiles, Mean VisibilityMiles, Min VisibilityMiles, Max Wind SpeedMPH, Mean Wind SpeedMPH, Max Gust SpeedMPH,PrecipitationIn, CloudCover, Events, WindDirDegrees
2013-1-1,19,11,3,18,11,1,100,88,73,30.19,30.10,30.00,10,10,0,17,3,16,0.00,5,,124
2013-1-2,30,19,8,10,4,-4,79,55,32,30.25,30.21,30.17,10,10,8,13,4,,0.00,0,,200
2013-1-3,28,16,3,10,4,-4,85,65,43,30.25,30.17,30.11,10,10,10,13,3,,0.00,0,,202
2013-1-4,33,20,6,18,8,-2,92,66,40,30.11,30.07,30.02,10,10,9,12,3,16,0.00,0,,98
2013-1-5,37,22,8,18,8,-2,86,67,41,30.23,30.17,30.10,10,10,9,13,5,,0.00,0,,165
2013-1-6,42,25,8,23,12,1,92,66,34,30.09,29.93,29.85,10,10,8,10,3,23,0.00,1,,2
2013-1-7,42,35,28,21,17,12,60,45,36,29.92,29.82,29.68,10,10,10,28,11,46,0.00,1,,263
2013-1-8,41,37,33,21,18,16,56,46,39,30.06,29.88,29.68,10,10,10,29,18,46,0.00,1,,254
2013-1-9,48,36,24,25,22,19,86,52,34,30.08,29.94,29.72,10,10,10,23,14,36,0.00,0,,216
2013-1-10,41,29,17,27,20,14,100,77,49,29.71,29.51,29.41,10,10,3,18,6,26,0.00,4,,20
2013-1-11,17,10,3,14,5,1,100,90,79,29.94,29.70,29.49,8,2,1,22,14,29,0.00,8,,5
2013-1-12,6,0,-5,3,0,-8,100,89,72,29.99,29.96,29.92,10,8,3,7,3,,0.00,7,,64
2013-1-13,8,2,-5,1,-2,-11,100,82,61,30.06,30.02,29.99,10,9,4,12,3,,0.00,5,,208
2013-1-14,15,3,-9,5,-2,-11,100,84,38,30.05,29.98,29.90,10,10,2,17,2,26,0.00,4,,344
2013-1-15,24,15,6,18,9,3,100,86,62,30.13,30.06,29.97,10,10,10,10,4,,0.00,4,,29
2013-1-16,35,24,12,18,13,3,93,69,41,30.31,30.21,30.12,10,10,10,14,6,28,0.00,0,,351
2013-1-17,42,28,15,19,12,3,86,63,27,30.34,30.25,30.11,10,10,10,18,5,30,0.00,0,,337
2013-1-18,51,44,37,14,11,9,33,25,19,30.11,30.03,29.97,10,10,10,24,16,39,0.00,0,,264
2013-1-19,48,42,35,12,8,5,36,25,20,30.19,30.13,30.07,10,10,10,23,15,36,0.00,0,,264
2013-1-20,42,28,15,19,15,9,93,65,25,30.32,30.23,30.12,10,10,10,21,9,25,0.00,2,,354
2013-1-21,51,32,12,23,11,7,92,39,19,30.17,30.06,29.98,10,10,10,24,9,36,0.00,1,,274
2013-1-22,48,36,24,25,11,0,80,37,16,30.07,30.03,29.98,10,10,10,25,13,39,0.00,0,,342
2013-1-23,48,40,32,25,11,3,60,30,17,30.08,30.03,29.95,10,10,10,15,6,23,0.00,0,,305
2013-1-24,51,45,39,25,19,9,46,35,20,30.10,29.98,29.89,10,10,10,30,13,41,0.00,2,,249
2013-1-25,48,44,41,25,22,19,49,41,34,30.10,30.02,29.93,10,10,10,26,16,43,0.00,1,,250
2013-1-26,44,36,28,27,24,19,80,59,39,29.93,29.82,29.68,10,10,7,15,8,23,0.00,2,,155
2013-1-27,35,30,24,28,26,19,100,83,70,29.76,29.71,29.66,10,8,2,18,7,24,0.00,7,,4
2013-1-28,28,24,19,21,16,3,93,71,43,29.77,29.73,29.68,10,10,6,18,6,26,0.00,5,,243
2013-1-29,24,15,6,19,10,3,93,72,43,30.00,29.80,29.63,10,10,2,17,9,25,0.00,4,,356
2013-1-30,26,16,6,21,14,3,100,89,69,29.92,29.82,29.77,10,10,8,10,3,,0.00,7,,30
2013-1-31,39,26,14,27,20,9,100,84,49,30.08,30.01,29.91,10,10,7,25,5,36,0.00,5,,10